Location: La Brionne
(46.1728°N, 1.7849°E)
Time: 22:54:12
(UTC+00:00)

Centaur D AC-29 - Pass Details

Date: 16 June 2021
Orbit: 531 x 36306 km, 26.6° (Epoch: 01 August)

Event Time Altitude Azimuth Distance (km) Brightness Sun altitude
Rises 20:38:52 0° 264° (W) 24,622 9.7 -7.7°
Reaches altitude 10° 21:31:23 10° 260° (W) 12,194 7.9 -13.3°
Maximum altitude 21:56:14 26° 215° (SW) 3,698 4.7 -15.5°
Enters shadow 22:00:39 18° 175° (S) 2,924 3.9 -15.9°
